Stations météo

réclame
Mon MeteoGroup
Cap Ferret, France (7500): Température de l'air & dewpoint: 11.01.2018 01:00:00 - 17.01.2018 01:00:00 (CET)Cap Ferret, France (7500): Vitesse du vent & gusts: 11.01.2018 01:00:00 - 17.01.2018 01:00:00 (CET)Cap Ferret, France (7500): Direction du vent: 11.01.2018 01:00:00 - 17.01.2018 01:00:00 (CET)Cap Ferret, France (7500): reduced air pressure: 11.01.2018 01:00:00 - 17.01.2018 01:00:00 (CET)Cap Ferret, France (7500): visibility: 11.01.2018 01:00:00 - 17.01.2018 01:00:00 (CET)Cap Ferret, France (7500): Quantités de précipitations: 11.01.2018 01:00:00 - 17.01.2018 01:00:00 (CET)
Date & Time tt [°C] td [°C] ff [km/h] ff [knt] fx [km/h] fx [knt] dd ppp [hPa] vv [km] rr [mm]
17.01.2018 01:00:00 11,3 8,7 53 28 87 47 W 1018,7 6 0,6
17.01.2018 00:00:00 11,4 9,5 58 31 95 51 W 1018,0 - 0,8
16.01.2018 23:00:00 11,9 10,3 58 31 81 44 W 1017,7 - 0,0
16.01.2018 22:00:00 11,8 9,7 53 28 93 50 W 1018,0 6 0,4
16.01.2018 21:00:00 13,2 10,9 64 35 84 45 W 1017,4 - 0,0
16.01.2018 20:00:00 12,7 10,8 57 31 89 48 W 1017,9 - 1,2
16.01.2018 19:00:00 13,0 11,1 59 32 94 51 W 1017,6 6 0,0
16.01.2018 18:00:00 13,2 11,1 56 31 79 43 WSW 1017,5 - 0,0
16.01.2018 17:00:00 13,3 11,2 55 30 76 41 WSW 1017,8 - 0,0
16.01.2018 16:00:00 13,2 11,1 53 29 73 39 WSW 1018,1 6 0,0
16.01.2018 15:00:00 13,2 11,4 50 27 72 39 WSW 1018,5 - 0,0
16.01.2018 14:00:00 13,2 11,4 51 27 74 40 WSW 1019,5 - 0,4
16.01.2018 13:00:00 13,5 11,2 53 28 70 38 WSW 1020,0 8 0,0
16.01.2018 12:00:00 13,4 10,9 49 26 67 36 WSW 1020,6 - 0,0
16.01.2018 11:00:00 13,2 10,7 43 23 69 37 W 1020,7 - 0,0
16.01.2018 10:00:00 12,8 10,3 60 32 80 43 W 1020,2 - 0,0
16.01.2018 09:00:00 12,8 10,3 48 26 70 38 W 1019,5 - 0,0
16.01.2018 08:00:00 12,9 10,1 47 26 81 44 W 1018,9 - 0,0
16.01.2018 07:00:00 12,6 10,7 51 27 76 41 W 1017,8 8 0,0
16.01.2018 06:00:00 12,9 10,1 49 26 79 42 W 1017,6 - 0,0
16.01.2018 05:00:00 12,7 10,2 51 27 78 42 W 1017,5 - 0,0
16.01.2018 04:00:00 12,6 10,8 48 26 72 39 WSW 1017,3 8 0,0
16.01.2018 03:00:00 12,4 10,5 55 30 74 40 WSW 1017,3 - 0,0
16.01.2018 02:00:00 12,4 11,1 40 22 62 33 WSW 1017,3 - 0,0
16.01.2018 01:00:00 12,6 11,2 46 25 72 39 WSW 1017,9 8 0,0
16.01.2018 00:00:00 12,4 11,0 55 30 79 43 WSW 1017,8 - 0,0
15.01.2018 23:00:00 12,4 11,1 59 32 86 46 WSW 1017,3 - 0,0
15.01.2018 22:00:00 12,3 10,9 59 32 82 44 WSW 1017,4 - 0,0
15.01.2018 21:00:00 11,4 10,3 49 27 83 45 SW 1017,2 - 0,4
15.01.2018 20:00:00 11,0 9,9 51 27 82 44 SW 1017,1 - 0,4
15.01.2018 19:00:00 10,4 9,5 54 29 91 49 SW 1017,5 8 0,4
15.01.2018 18:00:00 10,1 8,9 47 26 77 41 SW 1017,7 - 0,6
15.01.2018 17:00:00 10,4 7,5 49 27 73 39 SW 1018,0 - 0,4
15.01.2018 16:00:00 11,6 7,1 44 24 72 39 SW 1018,3 12 0,0
15.01.2018 15:00:00 11,9 7,0 42 23 68 37 SW 1018,6 - 0,0
15.01.2018 14:00:00 12,2 7,1 44 24 61 33 WSW 1019,9 - 0,0
15.01.2018 13:00:00 12,4 7,1 39 21 59 32 WSW 1020,7 12 0,0
15.01.2018 12:00:00 12,2 7,1 36 20 53 29 WSW 1021,2 - 0,0
15.01.2018 11:00:00 11,9 6,6 31 17 48 26 SW 1021,7 - 0,0
15.01.2018 10:00:00 11,4 6,5 32 18 44 24 WSW 1022,2 10 0,0
15.01.2018 09:00:00 10,7 6,6 26 14 37 20 W 1022,0 - 0,0
15.01.2018 08:00:00 10,3 6,1 31 17 46 25 W 1021,7 - 0,0
15.01.2018 07:00:00 9,9 5,9 32 17 48 26 W 1021,1 10 0,0
15.01.2018 06:00:00 9,5 7,4 29 16 41 22 WNW 1021,0 - 0,0
15.01.2018 05:00:00 9,0 8,2 18 10 26 14 W 1021,0 - 0,0
15.01.2018 04:00:00 7,7 6,9 9 5 14 8 SSE 1021,3 10 0,0
15.01.2018 03:00:00 7,5 6,8 6 3 14 7 SSE 1021,4 - 0,0
15.01.2018 02:00:00 6,8 6,1 8 4 12 7 ESE 1021,6 - 0,0
15.01.2018 01:00:00 5,4 4,0 5 3 9 5 ENE 1021,6 10 0,0
15.01.2018 00:00:00 7,0 5,9 5 3 8 4 NNE 1021,7 - 0,0
14.01.2018 23:00:00 7,4 6,2 2 1 10 5 NE 1021,0 - 0,0
14.01.2018 22:00:00 8,2 7,1 8 4 14 8 ENE 1020,1 10 0,0
14.01.2018 21:00:00 8,6 7,5 6 3 17 9 N 1019,7 - 0,0
14.01.2018 20:00:00 8,7 7,6 13 7 21 12 NE 1019,0 - 0,2
14.01.2018 19:00:00 8,8 7,6 8 4 21 11 NE 1018,0 12 0,0
14.01.2018 18:00:00 9,3 8,1 4 2 15 8 NE 1017,1 - 0,0
14.01.2018 17:00:00 9,5 8,1 7 4 16 9 N 1016,1 - 0,0
14.01.2018 16:00:00 9,2 7,6 16 9 32 17 W 1015,4 10 0,0
14.01.2018 15:00:00 9,3 8,1 21 12 37 20 NW 1015,3 - 0,4
14.01.2018 14:00:00 9,2 8,0 27 14 35 19 W 1015,2 - 3,2
14.01.2018 13:00:00 8,6 7,7 11 6 23 12 SSE 1015,5 6 1,2
14.01.2018 12:00:00 8,2 7,1 10 6 17 9 SE 1015,7 - 1,0
14.01.2018 11:00:00 8,0 7,1 9 5 15 8 SSE 1015,5 - 0,2
14.01.2018 10:00:00 7,6 6,7 8 5 14 7 ESE 1014,9 - 0,0
14.01.2018 09:00:00 7,7 6,8 10 5 14 8 SSE 1014,5 - 0,0
14.01.2018 08:00:00 7,6 6,5 8 4 14 8 SSE 1014,2 - 0,0
14.01.2018 07:00:00 7,4 6,5 6 3 13 7 SE 1013,8 10 0,0
14.01.2018 06:00:00 7,4 6,3 6 4 12 7 E 1013,5 - 0,4
14.01.2018 05:00:00 7,7 6,6 8 4 24 13 SE 1013,5 - 0,6
14.01.2018 04:00:00 7,5 6,4 15 8 32 18 SE 1013,5 10 0,2
14.01.2018 03:00:00 7,2 6,0 16 9 31 17 ESE 1013,3 - 0,4
14.01.2018 02:00:00 8,1 6,4 16 8 43 23 SE 1013,9 - 1,2
14.01.2018 01:00:00 9,1 6,5 23 13 42 23 S 1014,4 10 0,2
14.01.2018 00:00:00 9,6 6,3 25 13 42 23 SSW 1014,8 - 0,0
13.01.2018 23:00:00 9,7 6,4 28 15 45 25 SW 1014,6 - 0,0
13.01.2018 22:00:00 9,6 6,3 32 17 50 27 SW 1014,6 6 0,0
13.01.2018 21:00:00 9,8 6,7 36 19 58 31 SW 1014,3 - 0,6
13.01.2018 20:00:00 10,1 8,5 25 13 50 27 WSW 1014,1 - 4,7
13.01.2018 19:00:00 11,5 7,2 28 15 44 24 SSW 1013,6 12 0,0
13.01.2018 18:00:00 11,6 6,9 26 14 41 22 SW 1013,2 - 0,0
13.01.2018 17:00:00 11,5 6,6 28 15 41 22 SW 1013,4 - 0,0
13.01.2018 16:00:00 9,3 4,7 15 8 30 16 SE 1013,4 - 0,0
13.01.2018 15:00:00 9,7 4,1 16 9 30 16 SSE 1013,7 - 0,0
13.01.2018 14:00:00 8,6 3,8 14 8 31 17 SE 1013,9 - 0,0
13.01.2018 13:00:00 7,9 3,5 18 10 40 21 ESE 1014,2 15 0,0
13.01.2018 12:00:00 7,1 3,2 22 12 46 25 SE 1015,4 - 0,0
13.01.2018 11:00:00 5,8 2,8 27 15 50 27 ESE 1015,4 - 0,0
13.01.2018 10:00:00 4,6 2,6 28 15 48 26 ESE 1015,5 10 0,0
13.01.2018 09:00:00 4,3 2,3 27 15 51 28 ESE 1015,5 - 0,0
13.01.2018 08:00:00 4,5 2,5 24 13 50 27 ESE 1015,6 - 0,0
13.01.2018 07:00:00 4,5 2,7 22 12 49 26 ESE 1016,1 8 0,0
13.01.2018 06:00:00 4,6 3,1 26 14 49 26 ESE 1016,0 - 0,0
13.01.2018 05:00:00 4,7 3,7 17 9 38 20 E 1017,2 - 0,0
13.01.2018 04:00:00 4,6 3,6 11 6 39 21 ESE 1018,5 8 0,0
13.01.2018 03:00:00 4,4 3,5 22 12 41 22 E 1019,0 - 0,0
13.01.2018 02:00:00 4,6 3,9 15 8 33 18 E 1020,1 - 0,0
13.01.2018 01:00:00 5,0 4,3 13 7 29 15 E 1021,1 8 0,0
13.01.2018 00:00:00 5,5 4,9 13 7 29 15 E 1022,0 - 0,0
12.01.2018 23:00:00 5,5 4,9 13 7 29 15 E 1022,4 - 0,0
12.01.2018 22:00:00 5,7 5,0 16 9 30 16 E 1023,4 6 0,0
12.01.2018 21:00:00 5,9 5,2 14 8 25 14 E 1023,8 - 0,0
12.01.2018 20:00:00 6,4 5,3 11 6 23 13 E 1024,1 - 0,0
12.01.2018 19:00:00 6,9 5,8 14 8 23 13 ENE 1024,1 10 0,0
12.01.2018 18:00:00 7,5 6,3 13 7 24 13 ENE 1024,0 - 0,0
12.01.2018 17:00:00 7,9 6,7 15 8 24 13 ENE 1024,1 - 0,0
12.01.2018 16:00:00 8,3 6,9 13 7 23 12 NE 1024,2 5 0,0
12.01.2018 15:00:00 7,9 6,5 12 6 24 13 NNE 1024,4 - 0,0
12.01.2018 14:00:00 7,6 6,2 13 7 21 11 NE 1025,0 - 0,0
12.01.2018 13:00:00 7,1 5,4 13 7 24 13 NNE 1025,5 5 0,0
12.01.2018 12:00:00 7,9 6,5 5 3 9 5 ENE 1025,7 - 0,0
12.01.2018 11:00:00 6,9 6,3 6 3 11 6 NE 1026,2 - 0,0
12.01.2018 10:00:00 5,3 4,7 7 4 15 8 NNE 1025,9 - 0,0
12.01.2018 09:00:00 2,6 1,6 7 4 11 6 E 1025,6 - 0,0
12.01.2018 08:00:00 3,1 2,2 8 4 18 10 E 1025,4 - 0,0
12.01.2018 07:00:00 3,7 2,7 6 3 12 7 ESE 1025,0 15 0,0
12.01.2018 06:00:00 4,3 3,6 9 5 13 7 NE 1024,9 - 0,0
12.01.2018 05:00:00 3,0 2,1 9 5 10 6 NE 1024,9 - 0,0
12.01.2018 04:00:00 2,6 1,6 3 1 7 4 SSE 1024,9 15 0,0
12.01.2018 03:00:00 2,9 1,9 8 4 11 6 NE 1024,6 - 0,0
12.01.2018 02:00:00 2,8 1,6 8 4 9 5 NE 1024,7 - 0,0
12.01.2018 01:00:00 3,1 2,1 3 2 8 5 SSW 1024,6 15 0,0
12.01.2018 00:00:00 2,8 1,5 2 1 4 2 E 1024,4 - 0,0
11.01.2018 23:00:00 3,2 1,9 3 2 8 4 SE 1023,8 - 0,0
11.01.2018 22:00:00 3,6 2,3 6 3 8 5 ESE 1023,2 15 0,0
11.01.2018 21:00:00 4,1 2,6 3 1 8 4 E 1022,8 - 0,0
11.01.2018 20:00:00 4,6 2,8 6 3 10 5 NE 1021,9 - 0,0
11.01.2018 19:00:00 5,7 3,4 6 3 10 6 N 1021,0 15 0,0
11.01.2018 18:00:00 7,7 4,8 8 4 11 6 N 1019,9 - 0,0
11.01.2018 17:00:00 9,8 5,6 8 5 19 10 N 1019,0 - 0,0
11.01.2018 16:00:00 10,4 6,2 6 3 12 7 NNW 1018,3 17 0,0
11.01.2018 15:00:00 9,8 7,0 8 4 18 10 W 1017,5 - 0,6
11.01.2018 14:00:00 10,6 5,6 6 4 14 8 SW 1017,2 - 0,0
11.01.2018 13:00:00 9,7 5,5 7 4 24 13 WSW 1017,0 15 0,0
11.01.2018 12:00:00 9,0 6,4 16 9 42 23 WNW 1017,1 - 0,4
11.01.2018 11:00:00 8,1 4,5 17 9 36 19 WSW 1016,2 - 0,0
11.01.2018 10:00:00 8,5 5,2 34 18 53 28 NW 1015,5 10 1,8
11.01.2018 09:00:00 9,2 4,0 35 19 48 26 W 1014,7 - 0,0
11.01.2018 08:00:00 9,0 4,8 41 22 51 28 W 1014,0 - 0,8
11.01.2018 07:00:00 9,4 5,6 37 20 51 27 WSW 1013,7 10 0,0
11.01.2018 06:00:00 8,4 6,2 27 15 62 33 WSW 1013,4 - 0,6
11.01.2018 05:00:00 8,6 6,6 33 18 82 44 WSW 1013,3 - 1,8
11.01.2018 04:00:00 10,3 6,3 54 29 76 41 WSW 1013,4 10 0,0
11.01.2018 03:00:00 10,4 4,3 58 32 74 40 WSW 1012,7 - 0,0
11.01.2018 02:00:00 11,0 4,9 51 27 64 34 W 1012,3 - 0,0
11.01.2018 01:00:00 9,8 4,6 42 23 72 39 W 1012,5 10 0,0

tt = Température de l'air
td = dewpoint
ff = Vitesse du vent
fx = gusts
dd = Direction du vent
ppp = reduced air pressure
vv = visibility
rr = Quantités de précipitations

stations d'obs. à proximité